{"data":{"norad_id":52761,"intl_designator":"2022-057AF","name":"ION SCV-006","alt_names":[],"object_type":"PAYLOAD","status":"ACTIVE","operator":null,"country":"IT","launch_date":"2022-05-25","launch_site_code":"AFETR","launch_vehicle":null,"mission":null,"orbit_class":"UNKNOWN","rcs_meters":null,"size_class":null,"mass_kg":null,"dimensions":null,"purposes":[],"wikipedia_slug":null,"has_3d_model":false,"image_url":null,"decayed_at":null,"tle_current":{"epoch":"2026-09-20T10:08:11.738976Z","epoch_age_seconds":138438,"freshness":"FRESH","line1":"1 52761U 22057AF  26263.42235809  .00009520  00000+0  18785-3 0  9996","line2":"2 52761  97.6220  56.8363 0017331 127.1571 233.1264 15.47244327240836","mean_motion":15.47244327,"eccentricity":0.0017331,"inclination_deg":97.622,"raan_deg":56.8363,"arg_perigee_deg":127.1571,"mean_anomaly_deg":233.1264,"bstar":0.00018785,"rev_number":24083,"period_min":93.068688304197,"perigee_km":413.00137858091,"apogee_km":436.58168946554,"semimajor_km":6802.9285340232,"source":"CELESTRAK","updated_at":"2026-09-21T09:00:08.718584Z"}}}